User: anonymous   Login
Location: Sunrise Point
(46.9200°N, 121.5900°W)
Time: 03:18:33
(UTC-07:00)
Language:

Cosmos 2058 - Orbit

View from above orbital plane
View from above orbital plane
View from above satellite
View from above satellite

Ground track
Ground track

The orbit data is extracted from the following two-line orbital elements,

1 20465U 90010A   15086.11003947  .00002435  00000-0  21354-3 0  9994
2 20465 082.4897 308.9979 0016665 147.0827 213.1437 14.96144499363694
Epoch (UTC): 27 March 2015 02:38:27
Eccentricity: 0.0016665
inclination: 82.4897°
perigee height: 567 km
apogee height: 590 km
right ascension of ascending node: 308.9979°
argument of perigee: 147.0827°
revolutions per day: 14.96144499
mean anomaly at epoch: 213.1437°
orbit number at epoch: 36369

The dashed part of the orbit path shows where the satellite is in the earth's shadow,  

DLR